Albion, NE

7:18 PM CDT on August 24, 2016 (GMT -0500)
Albion Municipal

Weather History for KBVN - March, 2012

Change the Weather History Date:

Tuesday, March 27, 2012

  Actual Average (KOFK) Record (KOFK)
Temperature  
Mean Temperature 62 °F 42 °F  
Max Temperature 73 °F 54 °F 84 °F (1989)
Min Temperature 50 °F 30 °F 0 °F (1912)
Degree Days  
Heating Degree Days 4 23  
Month to date heating degree days 767  
Since 1 July heating degree days 5860  
Cooling Degree Days 0 0  
Month to date cooling degree days 0  
Year to date cooling degree days 0  
Growing Degree Days 12 (Base 50)    
Moisture  
Dew Point 36 °F    
Average Humidity 37    
Maximum Humidity 64    
Minimum Humidity 18    
Precipitation  
Precipitation 0.00 in 0.07 in 1.06 in (1998)
Month to date precipitation 1.46  
Year to date precipitation 2.81  
Snow  
Snow 0.00 in 0.20 in - ()
Month to date snowfall 4.5  
Since 1 July snowfall 27.3  
Snow Depth -    
Sea Level Pressure  
Sea Level Pressure 29.80 in    
Wind  
Wind Speed 15 mph (West)    
Max Wind Speed 29 mph    
Max Gust Speed 37 mph    
Visibility 10 miles    
Events      
T = Trace of Precipitation, MM = Missing Value Source: NWS Daily Summary

Daily Weather History Graph

Daily Weather History Graph

Search for Another Location

Airport or City:

Trip Planner

Search our weather history database for the weather conditions in past years. The results will help you decide how hot, cold, wet, or windy it might be!

Date:

Astronomy

Mar. 27, 2012 Rise Set
Actual Time 7:22 AM CDT 7:52 PM CDT
Civil Twilight 6:54 AM CDT 8:20 PM CDT
Nautical Twilight 6:21 AM CDT 8:53 PM CDT
Astronomical Twilight 5:48 AM CDT 9:27 PM CDT
Moon 9:50 AM CDT (3/27) 12:07 AM CDT (3/27)
Length of Visible Light 13h 25m
Length of Day
12h 30m
Waxing Crescent, 22% of the Moon is Illuminated
Mar 27
Waxing Crescent
Mar 30
First Quarter
Apr 6
Full
Apr 13
Last Quarter
Apr 21
New

Hourly Weather History & Observations

Time (CDT) Temp. Dew Point Humidity Pressure Visibility Wind Dir Wind Speed Gust Speed Precip Events Conditions
12:15 AM 68.0 °F 55.4 °F 64% 29.63 in 10.0 mi South 27.6 mph 34.5 mph N/A   Clear
12:35 AM 67.5 °F 54.7 °F 64% 29.62 in 10.0 mi South 28.8 mph 36.8 mph N/A   Clear
12:55 AM 67.5 °F 54.5 °F 63% 29.64 in 10.0 mi SSW 25.3 mph 36.8 mph N/A   Clear
1:15 AM 67.3 °F 54.5 °F 63% 29.66 in 10.0 mi SSW 21.9 mph 33.4 mph N/A   Clear
1:35 AM 66.6 °F 54.1 °F 64% 29.66 in 10.0 mi SSW 19.6 mph 27.6 mph N/A   Clear
1:55 AM 66.6 °F 53.6 °F 63% 29.66 in 10.0 mi SSW 23.0 mph 28.8 mph N/A   Clear
2:15 AM 66.6 °F 53.2 °F 62% 29.66 in 10.0 mi SSW 20.7 mph 29.9 mph N/A   Clear
2:35 AM 66.6 °F 52.7 °F 61% 29.67 in 10.0 mi SW 18.4 mph 28.8 mph N/A   Clear
2:55 AM 65.7 °F 52.7 °F 63% 29.69 in 10.0 mi SW 13.8 mph - N/A   Clear
3:15 AM 65.1 °F 52.0 °F 62% 29.70 in 10.0 mi WSW 10.4 mph 18.4 mph N/A   Clear
3:35 AM 64.0 °F 50.9 °F 62% 29.70 in 10.0 mi West 4.6 mph - N/A   Clear
3:55 AM 60.6 °F 45.9 °F 58% 29.70 in 10.0 mi NW 4.6 mph - N/A   Clear
4:15 AM 58.5 °F 40.8 °F 52% 29.71 in 10.0 mi West 4.6 mph - N/A   Clear
4:35 AM 58.5 °F 34.9 °F 41% 29.72 in 10.0 mi WSW 3.5 mph - N/A   Clear
4:55 AM 57.4 °F 33.8 °F 41% 29.74 in 10.0 mi Calm Calm - N/A   Clear
5:15 AM 58.1 °F 31.3 °F 36% 29.75 in 10.0 mi West 5.8 mph - N/A   Clear
5:35 AM 56.5 °F 29.7 °F 36% 29.76 in 10.0 mi West 3.5 mph - N/A   Clear
5:55 AM 55.4 °F 27.9 °F 35% 29.76 in 10.0 mi WSW 3.5 mph - N/A   Clear
6:15 AM 52.7 °F 29.5 °F 41% 29.76 in 10.0 mi WSW 4.6 mph - N/A   Clear
6:35 AM 52.0 °F 29.3 °F 42% 29.77 in 10.0 mi WSW 4.6 mph - N/A   Clear
6:55 AM 51.4 °F 29.8 °F 44% 29.77 in 10.0 mi WSW 3.5 mph - N/A   Clear
7:15 AM 50.4 °F 29.5 °F 45% 29.78 in 10.0 mi WSW 3.5 mph - N/A   Clear
7:35 AM 50.4 °F 29.3 °F 44% 29.80 in 10.0 mi Calm Calm - N/A   Clear
7:55 AM 50.5 °F 29.3 °F 44% 29.81 in 10.0 mi Calm Calm - N/A   Clear
8:15 AM 52.7 °F 28.8 °F 40% 29.82 in 10.0 mi WSW 5.8 mph - N/A   Clear
8:35 AM 54.5 °F 30.9 °F 41% 29.82 in 10.0 mi WSW 5.8 mph - N/A   Clear
8:55 AM 57.7 °F 30.0 °F 35% 29.82 in 10.0 mi WSW 9.2 mph - N/A   Clear
9:15 AM 59.2 °F 30.2 °F 33% 29.83 in 10.0 mi WSW 12.7 mph - N/A   Clear
9:35 AM 60.6 °F 31.3 °F 33% 29.84 in 10.0 mi WSW 11.5 mph 17.3 mph N/A   Clear
9:55 AM 61.7 °F 32.5 °F 33% 29.84 in 10.0 mi West 9.2 mph 19.6 mph N/A   Clear
10:15 AM 63.1 °F 35.1 °F 35% 29.84 in 10.0 mi WNW 10.4 mph - N/A   Clear
10:35 AM 65.5 °F 35.2 °F 33% 29.85 in 10.0 mi WNW 15.0 mph 25.3 mph N/A   Clear
10:55 AM 66.6 °F 36.0 °F 32% 29.86 in 10.0 mi NW 15.0 mph 25.3 mph N/A   Clear
11:15 AM 67.5 °F 36.1 °F 32% 29.86 in 10.0 mi WNW 12.7 mph 21.9 mph N/A   Clear
11:35 AM 68.2 °F 36.3 °F 31% 29.86 in 10.0 mi WNW 12.7 mph 24.2 mph N/A   Clear
11:55 AM 69.6 °F 35.1 °F 28% 29.87 in 10.0 mi WNW 17.3 mph 23.0 mph N/A   Clear
12:15 PM 70.2 °F 34.5 °F 27% 29.86 in 10.0 mi WNW 11.5 mph 28.8 mph N/A   Clear
12:35 PM 70.5 °F 31.3 °F 23% 29.86 in 10.0 mi West 17.3 mph 28.8 mph N/A   Clear
12:55 PM 71.6 °F 32.5 °F 24% 29.85 in 10.0 mi West 12.7 mph 20.7 mph N/A   Clear
1:15 PM 71.8 °F 29.8 °F 21% 29.86 in 10.0 mi WNW 13.8 mph 24.2 mph N/A   Clear
1:35 PM 72.1 °F 28.9 °F 20% 29.86 in 10.0 mi WNW 19.6 mph 26.5 mph N/A   Clear
1:55 PM 71.6 °F 29.5 °F 21% 29.85 in 10.0 mi NW 16.1 mph 23.0 mph N/A   Clear
2:15 PM 73.2 °F 28.9 °F 19% 29.85 in 10.0 mi WNW 17.3 mph 25.3 mph N/A   Clear
2:35 PM 72.5 °F 28.4 °F 19% 29.85 in 10.0 mi West 16.1 mph 24.2 mph N/A   Clear
2:55 PM 73.4 °F 29.8 °F 20% 29.85 in 10.0 mi West 15.0 mph 21.9 mph N/A   Clear
3:15 PM 72.9 °F 28.8 °F 20% 29.85 in 10.0 mi NW 11.5 mph 19.6 mph N/A   Clear
3:35 PM 73.4 °F 26.8 °F 18% 29.85 in 10.0 mi West 12.7 mph 27.6 mph N/A   Clear
3:55 PM 73.4 °F 27.5 °F 18% 29.86 in 10.0 mi WNW 12.7 mph 25.3 mph N/A   Clear
4:15 PM 73.2 °F 29.8 °F 20% 29.86 in 10.0 mi WNW 13.8 mph 27.6 mph N/A   Clear
4:35 PM 73.2 °F 30.7 °F 21% 29.86 in 10.0 mi West 12.7 mph 18.4 mph N/A   Clear
4:55 PM 72.5 °F 28.8 °F 20% 29.87 in 10.0 mi West 15.0 mph 23.0 mph N/A   Clear
5:15 PM 72.5 °F 30.4 °F 21% 29.87 in 10.0 mi WNW 16.1 mph 23.0 mph N/A   Clear
5:35 PM 72.1 °F 31.5 °F 22% 29.87 in 10.0 mi WNW 15.0 mph 19.6 mph N/A   Clear
5:55 PM 71.6 °F 32.0 °F 23% 29.87 in 10.0 mi NW 17.3 mph 21.9 mph N/A   Clear
6:15 PM 71.2 °F 32.5 °F 24% 29.88 in 10.0 mi NW 12.7 mph 19.6 mph N/A   Clear
6:35 PM 70.5 °F 33.8 °F 26% 29.89 in 10.0 mi WNW 12.7 mph 17.3 mph N/A   Clear
6:55 PM 68.9 °F 35.6 °F 29% 29.89 in 10.0 mi NNW 12.7 mph - N/A   Clear
7:15 PM 67.1 °F 36.5 °F 32% 29.90 in 10.0 mi NNW 6.9 mph - N/A   Clear
7:35 PM 65.3 °F 36.1 °F 34% 29.91 in 10.0 mi North 6.9 mph - N/A   Clear
7:55 PM 64.2 °F 35.6 °F 35% 29.92 in 10.0 mi North 4.6 mph - N/A   Clear
8:15 PM 62.2 °F 36.0 °F 38% 29.92 in 10.0 mi North 4.6 mph - N/A   Clear
8:35 PM 59.0 °F 36.0 °F 42% 29.92 in 10.0 mi North 4.6 mph - N/A   Clear
8:55 PM 55.0 °F 37.2 °F 51% 29.93 in 10.0 mi Calm Calm - N/A   Clear
9:15 PM 54.7 °F 36.5 °F 50% 29.94 in 10.0 mi NNW 3.5 mph - N/A   Clear
9:35 PM 55.0 °F 35.6 °F 48% 29.95 in 10.0 mi North 4.6 mph - N/A   Clear
9:55 PM 50.0 °F 36.3 °F 59% 29.95 in 10.0 mi Calm Calm - N/A   Clear
10:15 PM 48.2 °F 36.5 °F 64% 29.96 in 10.0 mi Calm Calm - N/A   Clear
10:35 PM 47.3 °F 36.7 °F 67% 29.96 in 10.0 mi Calm Calm - N/A   Clear
10:55 PM 44.8 °F 35.8 °F 71% 29.96 in 10.0 mi Calm Calm - N/A   Clear
11:15 PM 46.4 °F 36.1 °F 67% 29.97 in 10.0 mi Calm Calm - N/A   Clear
11:35 PM 46.8 °F 36.3 °F 67% 29.97 in 10.0 mi Calm Calm - N/A   Clear
11:55 PM 44.2 °F 36.3 °F 74% 29.98 in 10.0 mi Calm Calm - N/A   Clear